Location: Athabasca
(54.7194°N, 113.2858°W)
Time: 09:34:28
(UTC+00:00)

PRISM - Pass Details

Date: 02 December 2023
Orbit: 515 x 532 km, 98.2° (Epoch: 04 March)

Event Time Altitude Azimuth Distance (km) Brightness Sun altitude
Exits shadow 02:04:00 20° 352° (N) 1,297 ? -23.7°
Drops below altitude 10° 02:05:19 10° 349° (N) 1,827 ? -23.9°
Sets 02:07:26 0° 347° (NNW) 2,719 ? -24.2°
